Dubuque, IA

10:03 PM CST on November 19, 2019 (GMT -0600)
Dubuque Regional

Weather History for KDBQ - September, 2019

Change the Weather History Date:

Friday, September 13, 2019

  Actual Average Record
Temperature  
Mean Temperature 62 °F 63 °F  
Max Temperature 71 °F 74 °F 96 °F (1939)
Min Temperature 52 °F 53 °F 35 °F (1953)
Degree Days  
Heating Degree Days 4 4  
Month to date heating degree days 23 35  
Since 1 July heating degree days 32 62  
Cooling Degree Days 0 2  
Month to date cooling degree days 41 39  
Year to date cooling degree days 614 615  
Growing Degree Days 12 (Base 50)    
Moisture  
Dew Point 58 °F    
Average Humidity 83    
Maximum Humidity 100    
Minimum Humidity 63    
Precipitation  
Precipitation 0.00 in 0.11 in 3.67 in (1961)
Month to date precipitation 7.22 1.53  
Year to date precipitation 38.35 27.51  
Snow  
Snow 0.00 in 0.00 in - ()
Month to date snowfall 0.0 0.0  
Since 1 July snowfall 0.0 0.0  
Since 1 September snowfall 0.0 0.0  
Snow Depth 0.00 in    
Sea Level Pressure  
Sea Level Pressure 30.03 in    
Wind  
Wind Speed 11 mph ()    
Max Wind Speed 24 mph    
Max Gust Speed 34 mph    
Visibility 10.0 miles    
Events      
T = Trace of Precipitation, MM = Missing Value Source: Averaged Metar Reports

Daily Weather History Graph

Daily Weather History Graph

Search for Another Location

Airport or City:

Astronomy

Sep. 13, 2019 Rise Set
Actual Time 6:40 AM CDT 7:16 PM CDT
Civil Twilight 6:12 AM CDT 7:44 PM CDT
Nautical Twilight 5:38 AM CDT 8:18 PM CDT
Astronomical Twilight 5:04 AM CDT 8:52 PM CDT
Moon 7:31 PM CDT (9/13) 5:55 AM CDT (9/13)
Length of Visible Light 13h 32m
Length of Day
12h 35m
Full, 100% of the Moon is Illuminated
Sep 13
Full
Sep 13
Full
Sep 21
Last Quarter
Sep 28
New
Oct 5
First Quarter

Hourly Weather History & Observations

Time (CDT) Temp. Dew Point Humidity Pressure Visibility Wind Dir Wind Speed Gust Speed Precip Events Conditions
12:53 AM 71.1 °F 69.1 °F 93% 29.92 in 10.0 mi West 12.7 mph - N/A   Overcast
1:53 AM 69.1 °F 66.9 °F 93% 29.93 in 10.0 mi WSW 9.2 mph - N/A   Mostly Cloudy
2:53 AM 66.9 °F 66.0 °F 97% 29.92 in 10.0 mi WSW 6.9 mph - N/A   Mostly Cloudy
3:53 AM 66.0 °F 64.9 °F 96% 29.94 in 10.0 mi SW 6.9 mph - N/A   Clear
4:53 AM 64.9 °F 64.0 °F 97% 29.93 in 10.0 mi SW 6.9 mph - N/A   Clear
5:53 AM 64.0 °F 63.0 °F 96% 29.95 in 10.0 mi WSW 10.4 mph - N/A   Clear
6:31 AM 63.0 °F 61.0 °F 93% 29.98 in 10.0 mi West 13.8 mph - N/A   Mostly Cloudy
6:44 AM 61.0 °F 57.9 °F 90% 29.99 in 10.0 mi West 12.7 mph - N/A   Scattered Clouds
7:53 AM 60.1 °F 57.9 °F 93% 30.00 in 10.0 mi WSW 17.3 mph 23.0 mph N/A   Mostly Cloudy
8:09 AM 60.1 °F 57.9 °F 93% 30.01 in 10.0 mi WSW 11.5 mph 23.0 mph N/A   Overcast
8:53 AM 61.0 °F 57.9 °F 90% 30.01 in 10.0 mi WSW 12.7 mph 21.9 mph N/A   Overcast
9:53 AM 63.0 °F 55.9 °F 78% 30.03 in 10.0 mi West 16.1 mph 27.6 mph N/A   Mostly Cloudy
10:46 AM 64.0 °F 55.0 °F 73% 30.04 in 10.0 mi WSW 20.7 mph 28.8 mph N/A   Scattered Clouds
10:53 AM 64.0 °F 54.0 °F 70% 30.03 in 10.0 mi WSW 18.4 mph 26.5 mph N/A   Partly Cloudy
11:53 AM 64.0 °F 53.1 °F 67% 30.05 in 10.0 mi West 21.9 mph 29.9 mph N/A   Mostly Cloudy
12:53 PM 64.0 °F 53.1 °F 67% 30.07 in 10.0 mi West 19.6 mph 31.1 mph N/A   Mostly Cloudy
1:53 PM 64.9 °F 52.0 °F 63% 30.08 in 10.0 mi West 17.3 mph 26.5 mph N/A   Scattered Clouds
2:53 PM 64.9 °F 52.0 °F 63% 30.09 in 10.0 mi West 17.3 mph 26.5 mph N/A   Mostly Cloudy
3:53 PM 66.0 °F 54.0 °F 65% 30.08 in 10.0 mi WSW 17.3 mph 24.2 mph N/A   Scattered Clouds
4:53 PM 66.0 °F 54.0 °F 65% 30.08 in 10.0 mi WSW 17.3 mph 26.5 mph N/A   Scattered Clouds
5:53 PM 64.0 °F 55.0 °F 73% 30.09 in 10.0 mi WSW 9.2 mph 19.6 mph N/A   Partly Cloudy
6:53 PM 62.1 °F 55.0 °F 78% 30.09 in 10.0 mi WSW 8.1 mph - N/A   Scattered Clouds
7:53 PM 60.1 °F 55.9 °F 86% 30.11 in 10.0 mi SW 5.8 mph - N/A   Mostly Cloudy
8:53 PM 57.0 °F 55.0 °F 93% 30.12 in 10.0 mi SW 5.8 mph - N/A   Clear
9:53 PM 55.9 °F 54.0 °F 93% 30.13 in 10.0 mi SW 4.6 mph - N/A   Clear
11:53 PM 54.0 °F 53.1 °F 97% 30.15 in 10.0 mi SW 3.5 mph - N/A   Clear